This is the latest recevied weather packets stored in our database for station/object IW9CSJ-13. If no packets are shown the sender has not sent any weather packets the latest 10 day(s).
| Time | Temp. | Humidity | Pressure | Rain* | Wind** | Luminosity | Snow |
|---|---|---|---|---|---|---|---|
| 1777903845 | 18.33° C | 53% | 1017.3 hPa | 0 mm | - | - | - |
| 1777902921 | 17.78° C | 53% | 1017.6 hPa | 0 mm | - | - | - |
| 1777901419 | 18.89° C | 50% | 1017.9 hPa | 0 mm | - | - | - |
| 1777900825 | 18.89° C | 51% | 1017.8 hPa | 0 mm | - | - | - |
| 1777900218 | 19.44° C | 50% | 1017.8 hPa | 0 mm | - | - | - |
| 1777899321 | 19.44° C | 49% | 1017.7 hPa | 0 mm | - | - | - |
| 1777897527 | 19.44° C | 47% | 1018.1 hPa | 0 mm | - | - | - |
| 1777896024 | 20° C | 49% | 1018.3 hPa | 0 mm | - | - | - |
| 1777895722 | 20° C | 49% | 1018.2 hPa | 0 mm | - | - | - |
| 1777894525 | 20° C | 50% | 1018.3 hPa | 0 mm | - | - | - |
| 1777894218 | 19.44° C | 49% | 1018.3 hPa | 0 mm | - | - | - |
| 1777893322 | 19.44° C | 50% | 1018.4 hPa | 0 mm | - | - | - |
| 1777893043 | 19.44° C | 49% | 1018.4 hPa | 0 mm | - | - | - |
| 1777892120 | 20° C | 50% | 1018.3 hPa | 0 mm | - | - | - |
| 1777889422 | 19.44° C | 51% | 1018.5 hPa | 0 mm | - | - | - |
| 1777889163 | 19.44° C | 51% | 1018.6 hPa | 0 mm | - | - | - |
| 1777885519 | 19.44° C | 56% | 1018.7 hPa | 0 mm | - | - | - |
| 1777884947 | 19.44° C | 58% | 1018.7 hPa | 0 mm | - | - | - |
| 1777884324 | 19.44° C | 59% | 1018.7 hPa | 0 mm | - | - | - |
| 1777884020 | 18.89° C | 58% | 1018.7 hPa | 0 mm | - | - | - |
| 1777882543 | 18.89° C | 51% | 1018.8 hPa | 0 mm | - | - | - |
| 1777880723 | 19.44° C | 50% | 1018.6 hPa | 0 mm | - | - | - |
| 1777879824 | 18.89° C | 50% | 1018.7 hPa | 0 mm | - | - | - |
| 1777878620 | 18.33° C | 48% | 1018.6 hPa | 0 mm | - | - | - |
| 1777876817 | 20° C | 41% | 1018.6 hPa | 0 mm | - | - | - |
* Rain latest hour (hover to see other rain measurements)
** Current wind speed in m/s (hover to see current wind gust speed)